Location: Hodgeman County Ambulance
(38.0844°N, 99.8949°W)
Time: 15:05:06
(UTC+00:00)

ADEOS - Pass Details

Date: 27 October 2020
Orbit: 793 x 794 km, 98.9° (Epoch: 03 December)

Event Time Altitude Azimuth Distance (km) Brightness Sun altitude
Rises 11:57:45 0° 3° (N) 3,302 6.8 -13.0°
Reaches altitude 10° 12:00:16 10° 355° (N) 2,369 5.9 -12.5°
Maximum altitude 12:04:55 34° 292° (WNW) 1,289 4.2 -11.6°
Drops below altitude 10° 12:09:34 10° 228° (SW) 2,355 5.7 -10.7°
Sets 12:12:03 0° 219° (SW) 3,281 6.5 -10.2°
